Flag for U.S.A. Weather past 2 weeks in Pasadena, Texas, U.S.A.

Now
57 °F

Fog.


Feels Like: 57 °F
Forecast: 56 / 71 °F
Wind: No wind

Location: Houston / Ellington

Current Time: Dec 22, 2014 at 4:07:47 AM

Latest Report: Dec 22, 2014 at 2:50 AM


Visibility: 2 mi

Pressure: 29.84 "Hg

Humidity: 100%

Dew point: 57 °F

Location of PasadenaLocation

Historic Weather in Pasadena — Graph

°F

Pasadena temperature yesterday

Maximum temperature yesterday: 63 °F (at 1:50 PM)
Minimum temperature yesterday: 50 °F (at 4:50 AM)
Average temperature yesterday: 55 °F

Past Weeks' High & Low Weather Summary

 TemperatureHumidityPressure
High81 °F (Dec 15, 1:50 PM)100% (Dec 18, 7:50 AM)30.37 "Hg (Dec 18, 7:50 AM)
Low48 °F (Dec 17, 3:50 AM)32% (Dec 16, 2:50 PM)29.84 "Hg (Dec 22, 2:50 AM)
Average61 °F79%30.17 "Hg
* Reported Dec 7 2:50 AM — Dec 22 2:50 AM, Pasadena, Weather by CustomWeather, © 2014

Note: Actual official high and low records may vary slightly from our data, if they occured in-between our weather recording intervals... More about our weather records

Advertising

Pasadena weather history for previous 24 hours

 ConditionsComfort  
Time TempWeatherWind HumidityBarometerVisibility
2:50 AM
Dec 22
57 °FFog.No wind100%29.84 "Hg2 mi
1:50 AM59 °FFog.No wind94%29.86 "Hg5 mi
12:50 AM59 °FFog.No wind94%29.88 "Hg5 mi
11:50 PM
Dec 21
57 °FDrizzle. Low clouds.7 mph94%29.89 "Hg5 mi
10:50 PM57 °FPassing clouds.3 mph88%29.92 "Hg7 mi
9:50 PM55 °FPassing clouds.2 mph88%29.92 "Hg8 mi
8:50 PM55 °FPassing clouds.3 mph88%29.94 "Hg10 mi
7:50 PM55 °FPassing clouds.No wind88%29.95 "Hg10 mi
6:50 PM55 °FPassing clouds.7 mph88%29.95 "Hg9 mi
4:50 PM59 °FScattered clouds.7 mph77%29.97 "Hg10 mi
3:50 PM61 °FBroken clouds.7 mph68%29.98 "Hg10 mi
2:50 PM59 °FPartly sunny.8 mph72%30.00 "Hg10 mi
1:50 PM63 °FPartly sunny.3 mph64%30.00 "Hg10 mi
12:50 PM61 °FBroken clouds.3 mph68%30.04 "Hg10 mi
11:50 AM57 °FBroken clouds.3 mph77%30.10 "Hg10 mi
10:50 AM55 °FPartly sunny.3 mph77%30.14 "Hg10 mi
9:50 AM52 °FPartly sunny.No wind88%30.13 "Hg10 mi
8:50 AM50 °FPartly sunny.8 mph94%30.13 "Hg10 mi
7:50 AM50 °FOvercast.3 mph94%30.14 "Hg10 mi
6:50 AM50 °FOvercast.7 mph94%30.13 "Hg10 mi
5:50 AM50 °FOvercast.6 mph94%30.13 "Hg10 mi
4:50 AM50 °FOvercast.7 mph94%30.12 "Hg10 mi
Weather by CustomWeather, © 2014

See weather overviewHow to use our weather pages